Location: Barrialote
(9.9333°N, 67.3500°W)
Time: 13:58:20
(UTC+00:00)

Cosmos 2181 Rocket - Pass Details

Date: 18 April 2024
Orbit: 952 x 1013 km, 82.9° (Epoch: 25 May)

Event Time Altitude Azimuth Distance (km) Brightness Sun altitude
Rises 23:41:01 0° 189° (S) 3,619 6.9 -15.5°
Reaches altitude 10° 23:43:30 10° 191° (S) 2,675 6.3 -16.1°
Maximum altitude 23:49:34 68° 274° (W) 1,024 4.3 -17.5°
Drops below altitude 10° 23:55:42 10° 356° (N) 2,702 6.5 -19.0°
Sets 23:58:14 0° 359° (N) 3,657 7.2 -19.6°
